Temp
68 66 64 64 63 60 61 58 59 59 53 51 51 51 55 56 55 54 54 53 52 51 51 49 48 49 47 49 51 52 49 51 53 54 61 62 63 63 64 67 68 67 61
66 64 62 60 57 54 57 57 58 57 57 56 52 51 51 53 51 50 49 49 48 50 51 52 53 53 49 48 47 48 47 50 50 53 60 62 62 64 63 64 66 70 67
65 63 57 54 53 56 57 57 58 56 54 54 54 51 49 49 50 49 47 47 47 48 49 49 49 51 49 50 52 50 49 48 49 54 60 65 65 64 64 64 64 64 68
64 61 58 57 57 58 57 57 55 54 53 53 53 54 53 51 49 48 47 45 45 46 48 50 50 49 47 47 48 50 50 48 50 52 56 61 64 61 62 60 60 63 62
62 60 57 58 58 58 57 54 54 53 53 53 52 52 53 55 51 49 50 50 53 54 55 55 53 53 52 52 50 51 52 58 60 60 60 60 56 57 53 55 55 58 58
62 59 55 52 57 57 53 54 53 53 53 53 52 51 50 52 47 48 52 53 54 53 54 56 57 56 54 51 52 52 52 53 53 55 55 52 51 52 54 53 54 51 49
61 56 52 53 57 54 56 55 53 53 53 53 51 52 51 51 46 46 48 54 53 52 54 54 55 55 52 54 51 51 52 51 51 52 50 49 51 52 53 54 54 53 55
58 58 58 57 54 57 54 54 53 54 53 52 52 52 53 53 46 45 46 55 54 54 53 54 55 54 51 52 53 55 54 55 53 55 53 52 54 55 56 57 56 56 59
56 56 56 56 56 54 53 51 52 52 52 51 52 53 53 55 46 45 48 56 55 56 56 54 54 53 45 45 52 53 54 54 50 50 49 49 49 49 51 51 55 54 53
56 57 56 59 55 53 52 51 53 52 51 52 51 52 52 55 45 45 47 56 53 53 54 53 47 47 44 45 51 51 51 52 52 49 55 52 50 53 51 56 57 51 53
58 57 58 58 58 57 55 55 54 53 51 50 49 50 51 52 51 45 45 56 52 53 55 53 53 45 44 45 47 53 47 50 50 52 54 52 53 54 57 56 55 56 53
57 57 57 57 59 55 56 56 56 53 50 50 49 49 52 52 47 46 44 45 48 53 51 54 53 44 44 44 50 44 45 50 50 49 47 47 48 49 52 53 53 53 53
56 56 57 58 58 60 57 56 56 52 49 49 49 48 50 56 57 49 47 46 47 52 53 48 46 46 45 46 46 46 48 50 49 47 45 46 48 50 52 52 54 52 52
55 57 58 59 58 59 58 58 57 54 51 49 47 46 47 49 52 57 58 56 51 52 50 52 49 46 47 50 51 53 52 50 49 47 46 48 50 50 50 51 49 50 46
56 58 58 58 59 58 60 59 58 55 47 49 47 49 46 46 49 44 48 56 54 49 51 51 49 51 49 48 49 50 51 50 48 49 48 49 49 50 48 50 49 47 44
56 60 59 57 60 57 57 59 44 46 43 41 40 47 58 44 41 41 42 43 42 45 57 52 47 46 45 46 46 47 49 50 49 49 49 49 49 48 47 47 47 46 44
58 56 58 57 61 59 61 60 56 47 45 43 43 43 42 40 42 44 42 42 43 47 58 53 54 54 46 46 46 47 47 48 52 51 48 48 49 48 47 46 45 45 45
60 50 58 60 59 60 60 62 60 56 60 57 48 49 46 45 43 45 45 53 58 56 54 54 55 54 54 49 47 47 47 48 48 49 52 49 47 47 46 46 46 46 46
62 58 58 60 60 58 60 63 60 61 56 58 59 53 54 47 46 46 48 58 56 55 56 55 53 55 53 55 53 48 49 49 48 50 50 53 53 52 51 49 46 40 42
62 51 53 60 60 59 61 61 60 58 58 58 58 58 56 57 57 60 60 57 56 55 54 54 55 54 55 54 53 53 51 51 49 49 53 55 55 54 54 52 50 47 48
66 65 46 62 60 60 59 60 58 57 55 48 50 55 34 59 60 60 57 54 54 54 54 55 56 56 55 54 51 52 54 49 52 50 49 54 55 52 54 53 52 50 48
69 65 61 63 64 63 59 59 57 58 59 58 58 59 42 57 56 55 53 54 56 55 55 55 55 55 56 55 54 51 53 51 50 55 54 54 57 56 54 56 53 51 49
68 62 60 62 62 53 62 61 59 57 57 55 55 55 55 55 55 55 56 55 55 55 55 56 56 55 56 57 56 54 51 49 51 55 56 54 56 54 55 56 56 53 53
66 61 62 60 62 59 60 61 62 50 56 58 56 56 55 57 57 56 57 55 56 56 56 56 55 56 56 57 55 54 51 46 48 56 56 55 56 56 58 56 61 60 61
67 65 62 58 57 57 57 57 58 61 60 59 57 56 55 56 56 57 55 58 56 56 56 55 55 56 56 57 54 52 39 33 39 36 53 55 58 58 64 64 65 65 65
66 66 65 62 58 58 56 55 56 56 57 57 57 56 56 56 57 55 56 54 54 55 56 57 55 55 56 58 52 38 34 34 38 33 44 53 58 56 60 62 65 66 66
MSLP
1017.33 1017.61 1017.65 1017.64 1017.59 1017.60 1016.95 1016.74 1016.14 1015.77 1015.76 1015.30 1014.63 1013.89 1012.93 1012.31 1012.02 1011.45 1011.14 1010.99 1010.73 1010.67 1010.50 1010.28 1010.19 1009.76 1009.08 1008.98 1008.47 1008.28 1007.74 1007.07 1008.26 1007.86 1008.09 1008.88 1009.02 1008.80 1009.03 1009.11 1009.22 1009.62 1010.95
1018.47 1018.15 1018.44 1018.63 1018.69 1018.60 1017.82 1017.24 1016.77 1016.17 1015.84 1015.57 1015.30 1014.70 1014.05 1013.51 1013.22 1012.74 1012.32 1012.08 1011.76 1011.30 1011.16 1010.73 1010.39 1010.26 1010.10 1009.51 1009.93 1009.17 1009.03 1009.37 1008.97 1008.34 1007.88 1008.85 1009.08 1009.21 1009.26 1009.44 1009.69 1009.45 1009.95
1018.79 1018.72 1019.40 1019.47 1019.40 1018.62 1018.05 1017.62 1017.08 1016.77 1016.66 1016.35 1015.68 1015.36 1015.02 1014.61 1014.19 1013.91 1013.59 1013.21 1012.93 1012.52 1012.06 1011.65 1011.38 1011.04 1010.96 1010.72 1010.71 1010.32 1010.26 1009.93 1009.56 1009.24 1008.77 1008.67 1008.98 1009.58 1009.17 1009.36 1009.62 1009.73 1009.56
1018.90 1019.00 1019.49 1019.46 1019.19 1018.72 1018.35 1017.91 1017.83 1017.59 1017.20 1016.81 1016.31 1015.74 1015.51 1015.33 1015.07 1014.74 1014.32 1013.90 1013.61 1013.26 1012.71 1012.08 1012.00 1011.88 1011.74 1011.56 1011.37 1011.02 1010.73 1010.33 1010.33 1009.50 1009.40 1008.76 1009.04 1009.60 1009.51 1009.61 1009.66 1010.11 1010.18
1019.38 1019.45 1019.82 1019.60 1019.42 1019.04 1018.58 1018.60 1018.46 1018.24 1017.76 1017.32 1016.86 1016.49 1015.90 1015.45 1015.72 1015.27 1014.61 1014.03 1013.28 1012.71 1012.43 1012.34 1012.47 1012.28 1012.13 1011.89 1011.50 1011.05 1010.38 1009.73 1009.85 1009.16 1009.29 1009.36 1010.09 1010.11 1010.74 1011.00 1011.08 1010.93 1011.32
1019.85 1020.21 1020.73 1020.74 1020.10 1019.54 1019.37 1019.12 1018.80 1018.62 1018.11 1017.58 1017.27 1016.99 1016.57 1016.17 1016.24 1015.56 1014.71 1013.98 1013.51 1013.11 1012.64 1012.54 1012.54 1012.27 1012.38 1012.10 1011.96 1011.86 1011.66 1011.27 1010.93 1010.43 1010.47 1011.16 1011.66 1011.45 1011.57 1011.80 1011.78 1011.90 1011.69
1020.55 1021.19 1021.58 1021.17 1020.12 1020.08 1019.61 1019.35 1019.10 1018.72 1018.30 1017.89 1017.71 1017.19 1016.86 1016.71 1016.57 1015.94 1015.37 1014.56 1014.17 1013.83 1013.43 1013.08 1012.87 1012.96 1012.85 1012.54 1012.78 1012.48 1012.07 1012.08 1011.80 1011.39 1011.67 1012.13 1012.11 1012.25 1012.26 1012.11 1012.21 1012.09 1011.73
1021.20 1021.54 1021.33 1021.06 1020.85 1020.31 1020.15 1019.68 1019.50 1019.04 1018.59 1018.19 1017.88 1017.54 1017.12 1017.21 1016.93 1016.28 1015.45 1014.78 1014.55 1014.31 1014.20 1013.75 1013.60 1013.75 1014.01 1013.48 1012.71 1012.23 1012.21 1012.26 1012.22 1012.14 1012.57 1012.79 1012.95 1012.98 1012.68 1012.57 1012.51 1012.31 1011.88
1022.02 1022.15 1021.90 1021.63 1021.18 1021.10 1020.84 1020.58 1020.19 1019.65 1019.16 1018.87 1018.44 1017.96 1017.52 1017.17 1017.20 1016.44 1015.60 1014.88 1014.70 1014.50 1014.54 1014.86 1014.55 1014.35 1014.47 1013.89 1013.12 1012.74 1012.61 1012.67 1013.15 1013.25 1013.32 1013.47 1013.62 1013.56 1013.38 1013.18 1012.42 1012.09 1011.69
1022.52 1022.52 1022.45 1021.77 1021.73 1021.63 1021.48 1021.15 1020.73 1020.32 1019.92 1019.48 1019.10 1018.64 1018.06 1017.48 1017.58 1016.99 1016.30 1015.43 1015.25 1015.05 1015.04 1015.32 1015.64 1015.43 1014.95 1014.43 1013.86 1013.30 1013.27 1013.42 1013.32 1013.75 1013.49 1013.68 1013.69 1013.57 1013.68 1013.24 1012.77 1012.56 1012.24
1023.00 1022.98 1022.76 1022.35 1021.88 1021.73 1021.53 1021.21 1020.75 1020.32 1020.10 1019.95 1019.59 1019.28 1018.87 1018.54 1018.20 1017.83 1017.25 1016.30 1016.15 1015.71 1015.52 1015.54 1015.70 1015.79 1015.62 1015.24 1014.70 1014.42 1014.66 1014.52 1014.43 1014.03 1013.81 1013.70 1013.67 1013.81 1013.78 1013.80 1013.62 1013.32 1013.33
1023.57 1023.39 1023.05 1022.78 1022.28 1022.32 1021.82 1021.40 1021.09 1020.91 1020.65 1020.40 1020.07 1019.72 1019.33 1019.11 1018.86 1018.25 1017.85 1017.49 1017.03 1016.49 1016.43 1016.17 1016.15 1016.17 1016.04 1015.60 1015.29 1015.33 1015.10 1014.59 1014.69 1014.79 1014.85 1014.78 1014.74 1014.70 1014.61 1014.52 1014.39 1014.35 1014.45
1023.90 1023.73 1023.25 1022.96 1022.63 1022.24 1022.04 1021.90 1021.66 1021.72 1021.48 1021.17 1020.79 1020.36 1019.83 1019.17 1018.56 1018.50 1018.14 1017.84 1017.59 1017.24 1017.15 1017.02 1016.71 1016.33 1016.17 1015.94 1015.82 1015.56 1015.29 1015.28 1015.22 1015.25 1015.36 1015.41 1015.33 1015.20 1014.98 1014.84 1014.59 1014.75 1014.95
1024.09 1023.77 1023.34 1022.86 1022.68 1022.45 1022.29 1022.10 1022.26 1022.44 1022.31 1022.16 1021.71 1021.30 1020.82 1020.39 1019.88 1019.12 1018.59 1018.34 1018.11 1017.74 1017.53 1017.24 1016.81 1016.71 1016.53 1016.25 1015.98 1015.77 1015.79 1015.81 1015.71 1015.67 1015.70 1015.70 1015.57 1015.40 1015.21 1015.15 1015.03 1015.16 1015.34
1024.10 1023.71 1023.34 1023.14 1022.87 1022.72 1022.77 1023.04 1022.95 1023.44 1023.51 1023.09 1022.71 1022.10 1021.63 1021.08 1020.86 1020.51 1019.79 1018.95 1018.62 1018.36 1017.91 1017.76 1017.57 1017.23 1017.08 1016.97 1016.74 1016.53 1016.26 1016.11 1016.11 1015.94 1015.93 1015.83 1015.65 1015.48 1015.58 1015.53 1015.56 1015.61 1015.75
1024.19 1023.43 1023.55 1023.38 1022.77 1023.12 1023.01 1023.06 1023.65 1023.59 1023.50 1023.35 1023.08 1022.49 1021.40 1021.55 1020.98 1020.32 1019.84 1019.27 1018.70 1017.95 1017.46 1017.68 1017.83 1017.77 1017.69 1017.50 1017.22 1016.95 1016.81 1016.49 1016.54 1016.33 1016.15 1015.95 1015.85 1015.90 1015.91 1016.05 1016.06 1016.10 1016.24
1024.25 1024.02 1023.68 1023.50 1022.85 1023.00 1022.73 1022.62 1022.72 1023.54 1023.17 1022.90 1022.55 1022.29 1022.08 1021.53 1020.78 1020.05 1019.57 1019.22 1018.72 1018.12 1017.47 1017.57 1017.40 1017.29 1017.71 1017.74 1017.60 1017.39 1017.13 1016.95 1016.63 1016.48 1016.57 1016.45 1016.32 1016.34 1016.25 1016.32 1016.43 1016.51 1016.51
1024.25 1024.35 1024.05 1023.66 1023.38 1023.19 1022.68 1022.33 1022.36 1022.58 1022.15 1022.42 1022.29 1022.26 1021.93 1021.82 1021.11 1020.56 1019.93 1019.12 1018.87 1018.68 1018.58 1018.29 1017.98 1017.66 1017.52 1017.72 1017.82 1017.75 1017.44 1017.22 1017.00 1016.81 1016.38 1016.57 1016.61 1016.57 1016.55 1016.60 1016.65 1016.61 1016.63
1023.74 1024.39 1024.28 1023.87 1023.67 1023.51 1022.99 1022.33 1022.57 1022.39 1022.57 1022.22 1021.96 1021.95 1021.86 1021.38 1021.25 1020.96 1020.28 1019.97 1019.59 1019.34 1019.19 1018.90 1018.66 1018.19 1018.07 1017.81 1017.80 1017.86 1017.62 1017.31 1017.08 1016.90 1016.79 1016.41 1016.21 1016.30 1016.43 1016.68 1016.91 1016.97 1016.96
1024.38 1024.69 1024.43 1023.97 1023.68 1023.52 1023.21 1022.87 1022.63 1022.85 1022.79 1022.65 1022.40 1022.44 1022.54 1021.90 1021.56 1020.77 1020.61 1020.63 1020.30 1020.17 1019.87 1019.55 1019.14 1018.82 1018.46 1018.36 1018.20 1017.81 1017.49 1017.28 1017.06 1016.89 1016.45 1016.40 1016.25 1016.21 1016.18 1016.44 1016.78 1016.97 1016.95
1023.69 1024.11 1024.44 1023.86 1023.84 1023.68 1023.59 1023.29 1023.29 1023.23 1023.45 1023.60 1023.53 1023.45 1023.17 1022.17 1021.44 1021.23 1021.16 1021.18 1021.00 1020.77 1020.48 1020.04 1019.61 1019.21 1018.88 1018.74 1018.72 1018.39 1017.73 1017.72 1017.52 1016.97 1016.64 1016.11 1015.90 1016.13 1016.20 1016.37 1016.55 1016.90 1017.11
1023.24 1023.95 1024.30 1023.93 1023.75 1023.60 1023.79 1023.61 1023.81 1023.64 1023.40 1023.47 1023.50 1023.10 1023.06 1022.54 1022.46 1022.31 1022.15 1021.80 1021.47 1021.29 1020.97 1020.61 1020.15 1019.71 1019.27 1019.13 1018.99 1018.83 1018.36 1018.00 1017.91 1017.15 1016.55 1016.09 1015.62 1015.87 1016.09 1016.00 1016.39 1016.70 1016.95
1023.52 1024.43 1024.48 1024.06 1024.00 1024.24 1023.88 1023.85 1023.65 1023.78 1023.81 1023.89 1023.74 1023.52 1023.45 1023.06 1022.81 1022.51 1022.15 1022.17 1021.90 1021.57 1021.25 1020.82 1020.48 1020.18 1019.64 1019.35 1019.28 1019.22 1019.01 1018.80 1018.29 1017.61 1016.72 1016.29 1015.60 1015.56 1015.86 1015.86 1016.00 1016.26 1016.45
1024.12 1024.68 1024.33 1024.45 1024.19 1024.41 1024.13 1023.94 1023.79 1024.01 1023.92 1023.70 1023.83 1023.64 1023.49 1023.20 1022.81 1022.67 1022.35 1022.35 1022.00 1021.70 1021.40 1021.05 1020.76 1020.37 1019.97 1019.64 1019.81 1019.67 1019.68 1019.65 1018.93 1017.66 1017.10 1016.49 1016.09 1015.41 1015.39 1015.64 1015.26 1015.31 1015.33
1024.06 1024.25 1024.55 1024.89 1024.92 1024.87 1024.67 1024.51 1024.23 1023.97 1023.93 1023.90 1023.82 1023.88 1023.78 1023.51 1023.17 1022.87 1022.82 1022.27 1022.17 1021.79 1021.45 1021.27 1020.93 1020.65 1020.29 1019.92 1020.27 1020.19 1020.24 1019.88 1019.31 1018.76 1017.29 1016.44 1015.98 1015.36 1014.84 1014.55 1014.37 1014.27 1014.27
1024.16 1024.32 1024.42 1024.72 1025.06 1024.98 1024.95 1024.97 1024.82 1024.78 1024.55 1024.40 1024.30 1024.24 1024.02 1023.65 1023.24 1023.24 1023.11 1022.97 1022.60 1022.18 1021.85 1021.47 1021.35 1021.06 1020.62 1020.38 1020.77 1020.71 1020.31 1019.66 1018.97 1018.49 1017.82 1016.60 1015.79 1015.41 1015.06 1014.75 1014.26 1014.04 1013.93
Wind_Speed
17 15 13 14 14 15 13 12 14 12 10 13 13 14 14 15 14 12 11 10 12 11 9 9 9 9 7 7 8 9 9 10 3 3 7 7 6 6 6 4 7 7 9
14 13 14 13 14 12 13 13 13 13 13 14 12 13 13 13 13 13 12 12 14 11 10 10 10 7 9 10 7 8 10 9 4 4 6 8 6 6 5 2 3 3 5
10 11 11 10 10 11 13 12 12 13 12 14 13 13 13 13 13 12 11 11 10 10 10 9 10 11 10 7 8 7 7 5 7 7 3 6 5 5 2 6 3 3 3
11 11 10 11 12 13 11 11 13 13 12 11 11 12 11 12 12 11 9 7 7 7 7 8 9 9 7 6 6 7 3 2 3 2 2 4 3 5 7 6 6 6 6
11 13 11 13 12 13 13 12 12 11 10 10 10 11 13 11 10 12 10 6 5 5 8 9 10 12 15 13 5 6 6 7 4 3 4 8 8 7 7 5 4 3 4
14 15 14 11 14 12 10 12 9 10 11 10 12 12 12 10 16 18 15 9 10 9 9 10 9 10 11 13 15 15 13 9 10 9 7 9 6 4 5 6 4 3 2
14 13 10 9 11 12 12 13 11 11 10 11 11 12 12 12 17 18 21 9 8 9 11 10 9 9 12 9 5 4 8 9 9 8 6 5 4 7 4 4 3 2 3
13 13 11 13 12 14 12 13 13 10 12 9 11 12 13 12 16 17 21 8 7 9 11 10 11 11 12 12 8 7 9 8 9 6 7 8 7 5 5 4 2 2 2
13 12 11 11 12 13 14 14 13 12 12 10 9 12 12 13 17 19 15 8 8 9 10 13 12 11 14 15 7 6 7 7 6 6 7 5 3 4 6 5 2 3 3
10 10 9 10 12 11 11 11 11 8 9 9 11 11 12 13 19 21 18 7 11 8 9 10 15 12 12 14 10 8 9 9 7 3 4 4 4 3 5 6 6 8 5
10 9 9 10 10 13 12 9 8 7 6 9 9 9 12 13 13 16 17 10 7 6 8 7 9 11 9 9 11 10 7 5 6 6 6 6 5 6 6 7 8 7 7
8 8 7 7 8 7 11 9 10 9 11 11 10 8 9 9 10 9 9 9 13 8 7 6 7 6 8 9 8 7 9 6 4 5 5 5 5 5 5 5 7 8 7
6 6 6 7 8 9 9 11 11 11 9 8 8 8 10 10 9 6 5 7 9 7 7 8 11 10 3 3 9 6 5 5 5 5 3 4 4 3 3 3 5 7 10
5 4 5 6 5 9 6 7 10 10 7 8 7 8 7 8 10 11 11 11 7 9 9 8 6 1 9 9 6 6 5 6 5 4 4 3 3 3 4 4 5 6 6
5 3 4 4 6 6 7 9 8 8 5 7 6 6 6 7 7 7 7 7 5 5 5 7 8 8 8 6 6 8 6 5 5 4 4 3 4 4 5 5 6 4 5
4 4 5 4 5 5 4 4 5 4 2 2 1 6 5 3 8 9 9 11 10 7 7 8 6 5 6 6 6 4 6 6 5 6 5 5 5 6 5 4 5 4 4
2 7 4 4 2 3 3 3 4 1 2 2 4 5 6 7 12 12 7 9 12 10 9 7 8 7 4 5 6 6 5 5 6 4 5 5 6 6 5 4 4 3 3
1 1 5 5 6 5 4 5 4 6 5 6 1 8 7 9 11 13 16 9 10 10 9 10 10 8 8 6 5 5 5 3 3 5 3 3 2 3 4 4 3 3 4
5 7 5 4 5 5 4 5 6 5 3 6 4 1 8 4 7 10 11 9 10 10 10 10 8 8 7 8 7 4 6 5 3 2 3 4 2 3 4 4 5 5 2
7 3 5 3 3 5 5 5 7 7 7 6 8 10 9 11 10 10 11 9 10 8 8 8 9 7 7 8 9 6 4 6 6 4 4 1 1 1 3 4 4 3 2
6 4 3 2 6 6 6 6 7 6 7 4 5 8 5 6 8 10 9 7 7 7 8 8 8 10 7 8 7 8 8 5 8 6 5 3 1 3 3 2 4 4 3
4 3 2 3 3 3 5 5 5 5 5 6 4 2 6 6 8 8 8 8 9 7 6 7 8 7 8 8 9 8 9 8 7 7 6 6 2 6 3 4 4 4 4
5 5 4 2 3 1 2 4 4 5 6 7 9 8 7 6 5 5 6 7 7 6 5 6 7 8 6 8 9 9 10 9 9 8 8 7 8 6 5 3 7 5 5
4 2 5 4 4 4 4 3 4 2 5 5 5 7 8 7 8 9 8 7 7 6 5 5 5 9 7 8 9 9 9 10 8 8 10 6 7 4 6 7 4 6 6
3 2 2 3 5 5 6 7 7 6 6 6 6 8 8 8 7 7 7 8 7 6 7 8 7 9 9 13 14 16 13 10 9 9 8 7 8 8 2 3 5 4 4
5 3 2 2 4 4 4 5 7 6 7 6 6 5 6 6 7 8 8 8 8 8 10 8 9 14 13 13 15 11 11 13 13 11 8 8 5 5 5 6 4 4 3
Wind_Direction
15 1 10 7 8 7 3 3 354 8 3 359 0 358 3 19 23 26 36 47 57 52 45 43 38 26 41 17 25 35 11 48 81 91 103 93 65 70 80 73 133 131 117
4 8 19 16 13 2 347 5 357 357 21 20 11 9 12 19 26 23 32 27 24 25 30 26 38 41 51 39 19 36 31 11 19 129 124 135 117 100 84 115 33 42 102
355 21 29 15 5 358 360 358 2 20 23 14 17 25 20 20 23 27 25 27 26 23 26 29 28 29 41 39 40 47 58 65 355 354 119 73 73 37 122 113 59 62 121
24 29 29 13 3 6 358 11 25 18 20 14 7 20 30 30 25 18 18 20 24 25 11 24 53 47 47 38 43 46 29 134 202 210 352 95 56 70 45 21 63 39 32
21 21 22 10 10 0 18 29 25 17 10 16 17 19 5 26 17 357 348 330 348 45 49 47 43 47 48 43 26 31 9 46 53 111 68 69 47 45 45 29 40 47 58
16 28 24 11 8 359 24 23 18 17 4 17 25 20 14 25 359 355 358 20 16 23 32 60 52 53 60 47 40 47 43 36 46 46 59 67 56 68 54 49 46 25 123
37 35 25 10 359 29 16 19 23 17 8 28 22 13 28 32 2 357 350 39 31 34 35 34 51 43 16 19 60 37 57 40 40 30 77 75 74 59 80 94 88 74 59
42 28 19 18 15 24 18 22 18 12 8 23 19 25 36 43 4 353 335 62 64 63 41 32 38 37 18 356 360 40 38 45 31 41 45 62 56 36 43 51 8 293 164
45 32 22 24 25 23 18 10 8 6 12 11 19 21 23 40 12 3 357 40 62 54 60 39 19 23 5 355 351 52 59 62 87 79 75 75 61 14 337 300 336 334 67
44 47 23 31 36 26 18 12 12 8 9 9 14 11 25 25 25 12 5 29 22 31 42 35 42 20 8 3 358 18 55 29 43 134 131 164 176 132 287 350 356 3 347
34 49 26 21 27 25 20 15 12 10 26 18 16 18 19 29 31 15 10 27 18 32 34 31 34 15 10 11 20 37 40 345 45 35 25 35 56 45 39 28 16 20 13
45 30 34 26 27 31 26 23 30 25 20 22 19 17 24 22 25 10 11 18 359 31 22 34 44 9 9 23 39 38 29 10 64 62 48 36 35 35 33 36 48 56 52
51 31 23 33 23 32 42 41 33 25 20 14 16 13 15 20 22 356 2 21 31 16 13 348 327 356 189 32 32 33 73 50 41 49 54 39 36 19 25 45 56 83 61
59 8 28 44 22 35 45 32 44 25 25 19 15 16 11 12 13 13 23 27 24 33 26 23 16 147 31 24 49 43 55 44 38 50 50 33 48 37 51 40 56 59 59
37 2 14 49 26 52 43 34 40 50 25 24 17 21 7 15 8 330 357 19 22 5 39 37 30 16 22 21 25 22 29 39 38 39 61 48 53 62 56 47 59 65 63
340 33 50 9 20 54 24 75 93 69 70 149 207 10 74 52 320 324 324 326 333 17 57 56 44 31 22 7 2 18 23 44 42 36 43 44 56 50 59 57 57 53 61
359 5 38 1 11 53 24 15 56 137 267 73 49 49 11 327 343 2 348 290 299 326 33 40 17 53 49 22 10 4 10 9 6 72 51 43 50 57 53 56 61 62 64
350 226 27 356 28 349 357 12 19 49 23 64 97 26 15 345 334 6 358 22 28 31 23 19 12 24 26 56 20 8 351 355 359 5 44 106 72 66 63 53 47 57 78
16 51 354 11 24 329 342 356 37 32 29 32 55 28 15 290 274 5 3 29 19 18 26 12 16 9 26 26 26 13 2 350 323 315 350 357 121 147 99 101 86 63 72
109 30 283 38 19 23 16 354 22 33 15 7 32 23 19 11 15 0 33 29 10 24 4 20 11 9 23 22 11 2 349 11 360 353 336 203 285 20 53 123 111 113 61
105 89 339 68 40 20 20 6 21 35 61 66 4 29 338 336 4 29 10 22 16 18 9 4 14 15 8 23 19 1 356 25 355 348 323 311 292 131 122 108 120 105 127
90 107 81 19 37 56 28 27 46 18 38 31 10 30 306 10 15 15 17 6 18 14 6 360 2 13 7 25 7 1 353 355 349 336 334 332 253 138 145 122 131 130 150
71 77 322 355 23 76 39 31 26 29 20 12 13 12 22 6 11 5 359 20 359 3 357 347 19 360 357 24 13 4 360 342 331 325 330 333 311 133 171 180 148 176 191
102 356 355 351 18 333 353 358 0 32 354 15 359 349 2 350 354 1 8 12 354 1 354 340 12 360 354 26 15 6 5 345 322 318 327 311 321 323 151 192 178 149 173
41 43 240 30 348 354 356 348 351 346 353 354 355 358 351 351 354 4 13 4 354 359 358 351 8 3 351 22 17 1 353 332 324 316 298 305 307 282 271 179 158 130 139
341 39 320 332 344 319 339 342 346 350 342 348 360 353 349 344 358 17 2 359 353 353 360 0 2 5 2 18 8 352 349 338 335 325 308 286 296 303 15 323 210 172 202